Weather History for Oslo Airport, Norway

Change the Weather History Date:

Wednesday, November 14, 2012

  Actual Average Record
Temperature  
Mean Temperature 45 °F -  
Max Temperature 48 °F 32 °F 48 °F (2005)
Min Temperature 42 °F 23 °F 10 °F (1996)
Degree Days  
Heating Degree Days 20    
Moisture  
Dew Point 44 °F    
Average Humidity 93    
Maximum Humidity 100    
Minimum Humidity 76    
Precipitation  
Precipitation 0.01 in 0.10 in - ()
Sea Level Pressure  
Sea Level Pressure 30.01 in    
Wind  
Wind Speed 9 mph ()    
Max Wind Speed 15 mph    
Max Gust Speed -    
Visibility 5.7 miles    
Events Fog , Rain    
Averages and records for this station are not official NWS values.
T = Trace of Precipitation, MM = Missing Value Source: Averaged Metar Reports

Daily Weather History Graph

Daily Weather History Graph

Search for Another Location

Airport:

Trip Planner

Search our weather history database for the weather conditions in past years. The results will help you decide how hot, cold, wet, or windy it might be!

Date:

Astronomy

Nov. 14, 2012 Rise Set
Actual Time 8:13 AM CET 3:46 PM CET
Civil Twilight 7:23 AM CET 4:35 PM CET
Nautical Twilight 6:31 AM CET 5:27 PM CET
Astronomical Twilight 5:42 AM CET 6:16 PM CET
Moon 8:58 AM CET (11/14) 4:00 PM CET (11/14)
Length of Visible Light 9h 11m
Length of Day
7h 33m
New Moon, 0% of the Moon is Illuminated
Nov 14
New Moon
Nov 20
First Quarter
Nov 28
Full
Dec 6
Last Quarter
Dec 13
New

Hourly Weather History & Observations

Time (CET) Temp. Windchill Dew Point Humidity Pressure Visibility Wind Dir Wind Speed Gust Speed Precip Events Conditions
12:10 AM 44.6 °F 38.1 °F 44.6 °F 100% 30.06 in 0.5 mi South 13.8 mph - N/A Fog , Rain Light Rain
12:40 AM 44.6 °F 38.1 °F 44.6 °F 100% 30.06 in 0.3 mi South 13.8 mph - N/A Fog , Rain Light Rain
1:00 AM 45 °F - 45 °F 100%  in 0 mi South 8.9 mph - - Rain Light Rain
1:11 AM 44.6 °F 38.1 °F 44.6 °F 100% 30.06 in 0.3 mi South 13.8 mph - N/A Fog , Rain Light Rain
1:44 AM 44.6 °F 37.8 °F 44.6 °F 100% 30.06 in 0.4 mi South 15.0 mph - N/A Fog Fog
2:12 AM 46.4 °F 40.4 °F 46.4 °F 100% 30.06 in 0.7 mi SSW 13.8 mph - N/A   Mostly Cloudy
2:40 AM 46.4 °F 40.7 °F 46.4 °F 100% 30.06 in 4.3 mi South 12.7 mph - N/A   Overcast
3:10 AM 46.4 °F 40.7 °F 46.4 °F 100% 30.04 in 5.6 mi South 12.7 mph - N/A   Overcast
3:43 AM 46.4 °F 41.1 °F 46.4 °F 100% 30.04 in 4.3 mi South 11.5 mph - N/A   Overcast
4:10 AM 46.4 °F 40.7 °F 46.4 °F 100% 30.04 in 5.6 mi South 12.7 mph - N/A   Overcast
4:41 AM 46.4 °F 40.4 °F 46.4 °F 100% 30.04 in 6.2 mi SSW 13.8 mph - N/A   Overcast
5:10 AM 46.4 °F 41.5 °F 46.4 °F 100% 30.01 in 6.2 mi South 10.4 mph - N/A   Overcast
5:41 AM 46.4 °F 41.9 °F 46.4 °F 100% 30.01 in 6.2 mi South 9.2 mph - N/A   Mostly Cloudy
6:10 AM 46.4 °F 41.5 °F 46.4 °F 100% 30.01 in 6.2 mi SSW 10.4 mph - N/A   Mostly Cloudy
6:40 AM 46.4 °F 41.1 °F 46.4 °F 100% 30.01 in 6.2 mi SSW 11.5 mph - N/A   Mostly Cloudy
7:00 AM 46 °F - 46 °F 100%  in 12 mi SSW 11.2 mph - -   Partly Cloudy
7:10 AM 46.4 °F 40.7 °F 46.4 °F 100% 30.04 in 6.2 mi SSW 12.7 mph - N/A   Overcast
7:41 AM 46.4 °F 40.7 °F 46.4 °F 100% 30.01 in 6.2 mi SSW 12.7 mph - N/A   Mostly Cloudy
8:11 AM 46.4 °F 41.1 °F 46.4 °F 100% 30.04 in 6.2 mi SSW 11.5 mph - N/A   Mostly Cloudy
8:41 AM 46.4 °F 41.9 °F 44.6 °F 93% 30.04 in 6.2 mi SSW 9.2 mph - N/A   Mostly Cloudy
9:10 AM 46.4 °F 41.9 °F 44.6 °F 93% 30.04 in 6.2 mi SSW 9.2 mph - N/A   Mostly Cloudy
9:41 AM 46.4 °F 40.7 °F 44.6 °F 93% 30.04 in 6.2 mi SSW 12.7 mph - N/A   Mostly Cloudy
10:10 AM 46.4 °F 40.4 °F 44.6 °F 93% 30.04 in 6.2 mi SSW 13.8 mph - N/A   Mostly Cloudy
10:41 AM 46.4 °F 42.9 °F 44.6 °F 93% 30.04 in 6.2 mi SW 6.9 mph - N/A   Mostly Cloudy
11:11 AM 46.4 °F 43.5 °F 44.6 °F 93% 30.04 in 6.2 mi SSW 5.8 mph - N/A   Mostly Cloudy
11:40 AM 46.4 °F 42.9 °F 44.6 °F 93% 30.04 in 6.2 mi SSW 6.9 mph - N/A   Mostly Cloudy
12:11 PM 46.4 °F 41.9 °F 44.6 °F 93% 30.04 in 6.2 mi South 9.2 mph - N/A   Mostly Cloudy
12:41 PM 46.4 °F 43.5 °F 44.6 °F 93% 30.04 in 6.2 mi SW 5.8 mph - N/A   Mostly Cloudy
1:00 PM 47 °F - 44 °F 87%  in 19 mi SW 13.4 mph - -   Partly Cloudy
1:11 PM 46.4 °F 42.9 °F 44.6 °F 93% 30.04 in 6.2 mi SW 6.9 mph - N/A   Mostly Cloudy
1:41 PM 48.2 °F - 44.6 °F 87% 30.04 in 6.2 mi SSW 5.8 mph - N/A   Mostly Cloudy
2:10 PM 46.4 °F 42.9 °F 42.8 °F 87% 30.04 in 6.2 mi SW 6.9 mph - N/A   Mostly Cloudy
2:40 PM 46.4 °F 43.5 °F 41.0 °F 81% 30.04 in 6.2 mi SW 5.8 mph - N/A   Mostly Cloudy
3:10 PM 46.4 °F 44.3 °F 41.0 °F 81% 30.04 in 6.2 mi SW 4.6 mph - N/A   Mostly Cloudy
3:40 PM 46.4 °F - 39.2 °F 76% 30.04 in 6.2 mi Variable 2.3 mph - N/A   Mostly Cloudy
4:10 PM 44.6 °F - 39.2 °F 81% 30.04 in - Variable 1.2 mph - N/A   Clear
4:41 PM 42.8 °F - 39.2 °F 87% 30.01 in - SW 2.3 mph - N/A   Clear
5:10 PM 42.8 °F - 41.0 °F 93% 30.01 in - Variable 2.3 mph - N/A   Clear
5:40 PM 44.6 °F 41.4 °F 42.8 °F 93% 30.01 in - SW 5.8 mph - N/A   Clear
6:10 PM 44.6 °F - 42.8 °F 93% 29.98 in - Variable 2.3 mph - N/A   Clear
6:40 PM 44.6 °F - 42.8 °F 93% 29.98 in - Variable 1.2 mph - N/A   Clear
7:00 PM 46 °F - 42 °F 81%  in 40 mi South 2.2 mph - -   Partly Cloudy
7:12 PM 44.6 °F 43.1 °F 41.0 °F 87% 29.98 in - South 3.5 mph - N/A   Clear
7:40 PM 46.4 °F 44.3 °F 41.0 °F 81% 29.98 in - SW 4.6 mph - N/A   Clear
8:16 PM 46.4 °F 44.3 °F 41.0 °F 81% 29.98 in - SW 4.6 mph - N/A   Clear
8:43 PM 44.6 °F 41.4 °F 41.0 °F 87% 29.95 in 6.2 mi SSW 5.8 mph - N/A Rain Light Rain
9:11 PM 44.6 °F 42.2 °F 41.0 °F 87% 29.95 in 6.2 mi SSW 4.6 mph - N/A Rain Light Rain Showers
9:43 PM 44.6 °F 41.4 °F 42.8 °F 93% 29.92 in 6.2 mi SW 5.8 mph - N/A Rain Light Rain Showers
10:13 PM 44.6 °F 41.4 °F 42.8 °F 93% 29.92 in 6.2 mi SSW 5.8 mph - N/A Rain Light Rain Showers
10:42 PM 42.8 °F 39.3 °F 41.0 °F 93% 29.92 in 6.2 mi SSW 5.8 mph - N/A Rain Light Rain Showers
11:11 PM 42.8 °F - 41.0 °F 93% 29.92 in 6.2 mi WSW 2.3 mph - N/A Rain Light Rain Showers
11:40 PM 42.8 °F 39.3 °F 41.0 °F 93% 29.89 in 6.2 mi SSW 5.8 mph - N/A Rain Light Rain